Powrót do katalogu

USA 40 R/B DEB

LostHEO
NORAD 23374·DEBRIS·🇺🇸 United States

Wystrzelony Aug 8, 1989 z Cape Canaveral Space Force Station

Loading…

Następne Przeloty (najbliższe 24 godziny)

TLE

NieaktualneSource: Space-Track

Epoka: Feb 13, 2023, 01:43 UTC

1 23374U 89061AW  23044.07203788  .00021883  00000-0  22757-1 0  9997
2 23374  57.1011 181.6526 3094526 154.9494 224.0594  8.63896008 20185

Śledź USA 40 R/B DEB w czasie rzeczywistym z AllMySat

Download on the App Store